STARLINK-2707 (48669 NORAD) Tracking and Keplerian Element Data

This shows tracking and keplerian element data for the satellite.

Feedback or suggestion? Click here.




ElementValue
Catalog48669
NameSTARLINK-2707
Epoch Orbit365
Epoch Day214.91667824
Epoch Year2021
RAAN92.5682
Inclination53.0476
Eccentricity0.0001627
Argument of Perigee55.6168
Mean Anonmoly216.2244
Mean Motion15.11760038
Decay Rate-0.00920733
L11 48669U 21044AH 21214.91667824 -.00920733 00000-0 -57681-1 0 9991
L22 48669 53.0476 92.5682 0001627 55.6168 216.2244 15.11760038 3656

Live tracking and technical data element details for STARLINK-2707 (NORAD 48669). STARLINK-2707 can be tracked NOW for your location showing map with azimuth and elevation plus other details from your city location.

Track the satellite on the map from your city or location and see movement details for azimuth, elevation, latitude, longitude, range, height, and movement on the map or in text.







IsCatalogInMostPopularTable: catalog: 48669, numindb: 18
Update: records affected: 1



GetName: 48669 STARLINK-2707

Hit Count: updated at: Tue, 03 Aug 2021 21:11:48 GMT